Regional Weather Roundup
Issued by NWS Upton, NY

Current Version | Previous Version | Text Only | Print | Product List | Glossary On
Versions: 1 2 3 4 5 6 7 8 9 10 11 12 13 14 15 16 17 18 19 20 21 22 23 24 25 26 27 28 29 30 31 32 33 34 35 36 37 38 39 40 41 42 43 44 45 46 47 48 49 50
000 ASUS41 KOKX 252207 RWROKX REGIONAL WEATHER ROUNDUP NATIONAL WEATHER SERVICE NEW YORK NY 600 PM EDT WED MAR 25 2015 NOTE: "FAIR" INDICATES FEW OR NO CLOUDS BELOW 12,000 FEET WITH NO SIGNIFICANT WEATHER AND/OR OBSTRUCTIONS TO VISIBILITY. NYZ071-072-176-178-NJZ106-104-252300- NEW YORK CITY METRO AREA CITY SKY/WX TMP DP RH WIND PRES REMARKS CENTRAL PARK CLOUDY 40 32 73 S10 30.29F WCI 33 LAGUARDIA APRT CLOUDY 41 33 73 S9 30.28F KENNEDY INTL CLOUDY 40 33 76 SE9 30.30F WCI 34 NEWARK/LIBERTY CLOUDY 40 34 79 SE6 30.28F BRNX BOT. GARD N/A 39 32 75 SE7 30.29F WCI 34 TETERBORO CLOUDY 41 33 73 S7 30.27F $$ NYZ177-179-078>081-252300- LONG ISLAND NEW YORK CITY SKY/WX TMP DP RH WIND PRES REMARKS FARMINGDALE CLOUDY 39 33 79 SE9 30.28F WCI 33 ISLIP LGT RAIN 38 32 79 SE8 30.28F WCI 32 SHIRLEY LGT RAIN 38 31 76 SE8 30.31F WCI 32 WESTHAMPTON LGT RAIN 39 30 70 S6 30.33F WCI 35 MONTAUK POINT N/A 40 30 67 S6 30.34F $$ NYZ052-065-067-252300- HUDSON VALLEY CITY SKY/WX TMP DP RH WIND PRES REMARKS WHITE PLAINS LGT RAIN 37 33 85 SE8 30.26F WCI 31 NEWBURGH PTSUNNY 36 30 80 S6 30.26S WCI 31 MONTGOMERY LGT RAIN 37 30 75 S6 30.23F WCI 32 POUGHKEEPSIE LGT RAIN 38 31 76 CALM 30.26S ALBANY SLEET 42 25 50 S16G24 30.16S $$ NJZ001-105-106-008-010-013-015-019>022-104-252300- NEW JERSEY CITY SKY/WX TMP DP RH WIND PRES REMARKS NEWARK/LIBERTY CLOUDY 40 34 79 SE6 30.28F TETERBORO CLOUDY 41 33 73 S7 30.27F CALDWELL CLOUDY 39 32 76 S7 30.26F WCI 34 MORRISTOWN CLOUDY 41 34 75 SE10 30.26F SOMERVILLE CLOUDY 42 31 64 SE6 30.22F SUSSEX LGT RAIN 39 30 70 CALM 30.22F ANDOVER N/A 38 29 70 S5 30.21F WCI 34 TRENTON CLOUDY 41 34 76 SE13 30.22F MILLVILLE CLOUDY 47 37 68 SE7 30.23F ATLANTIC CITY CLOUDY 45 37 73 SE10 30.24F WRIGHTSTOWN CLOUDY 41 37 83 SE6 30.23F TOMS RIVER CLOUDY 43 36 75 SE7 30.26F BELMAR CLOUDY 39 32 75 SE8 30.26S WCI 34 $$ PAZ047>061-062-071-252300- EASTERN PENNSYLVANIA CITY SKY/WX TMP DP RH WIND PRES REMARKS PHILADELPHIA CLOUDY 45 36 70 SE7 30.24F ALLENTOWN LGT RAIN 40 31 70 S3 30.23F SCRANTON CLOUDY 38 30 73 SW6 30.16S WCI 33 $$ CTZ002-004>006-009-010-012-RIZ004-006-007-MAZ004-011-015-252300- SOUTHERN NEW ENGLAND IN CT CITY SKY/WX TMP DP RH WIND PRES REMARKS BRADLEY INTL LGT RAIN 42 23 46 S20G25 30.25F HARTFORD LGT RAIN 40 26 57 S13 30.29S WCI 32 DANBURY LGT RAIN 36 29 75 S9 30.27F WCI 29 WTRBRY/OXFORD LGT RAIN 36 25 64 S7 30.27F WCI 30 BRIDGEPORT LGT RAIN 38 33 82 S10 30.30F WCI 31 MERIDEN LGT RAIN 38 28 67 S7 30.30S WCI 33 NEW HAVEN LGT RAIN 38 30 73 S9 30.30F WCI 31 CHESTER LGT RAIN 39 28 65 S8 30.30F WCI 34 GROTON CLOUDY 38 30 73 S10 30.32F WCI 31 WILLIMANTIC CLOUDY 41 20 43 S9 30.29F IN RI CITY SKY/WX TMP DP RH WIND PRES REMARKS PROVIDENCE PTSUNNY 41 19 41 S12 30.32R BLOCK ISLAND FAIR 39 30 70 S10 30.33F WCI 32 WESTERLY PTSUNNY 39 29 67 S9 30.33F WCI 33 IN MA CITY SKY/WX TMP DP RH WIND PRES REMARKS BOSTON PTSUNNY 43 18 36 S22 30.27R WORCESTER PTSUNNY 41 16 36 S16 30.22F WESTFIELD LGT RAIN 41 21 44 S17 30.23F PROVINCETOWN FAIR 39 25 56 S12 30.32S WCI 32 NANTUCKET FAIR 37 31 78 S8 30.35F WCI 31 $$ ANZ330-335-338-340-345-350-353-355-252300- COASTAL MARINE OBSERVATIONS STATION/POSITION TIME SKY/WX TEMP WIND PRES VSBY WAVE AIR SEA DIR/SP/G HT/PER (UTC) (F) (DEG/KT/KT) (MB) (MI) (FT/S) NY HARB ENTRANCE 2150 39 38 120/ 10/ 12 1025.2 1/ 8 4S FIRE IS 2103 37 N/A 1/ 8 20S FIRE ISLAND 2050 39 1027.8 1/ 8 23SW MTP 2150 N/A 1/ 8 HUDSON CANYON NOT AVBL EXECUTION ROCKS NOT AVBL WESTERN LI SOUND NOT AVBL CENTRAL LI SOUND NOT AVBL EASTERN LI SOUND NOT AVBL ROBBINS REEF 2100 38 160/ 12/ 15 1024.4 $$ >>>>>>>>>>>>>>>>>>>>>>>>>>>> KEY <<<<<<<<<<<<<<<<<<<<<<<<<<< > < > SKY/WX - SKY CONDITION/PRESENT WEATHER < > TMP - TEMPERATURE IN FAHRENHEIT < > DP - DEWPOINT IN FAHRENHEIT < > RH - RELATIVE HUMIDITY IN PERCENT < > WIND - DIRECTION AND SPEED IN MPH < > PRES - MEAN SEA LEVEL PRESSURE IN INCHES OF HG < > WCI - WIND CHILL INDEX < > VSB - VISIBILITY IN MILES < > HX - HEAT INDEX < > TC - TEMPERATURE IN CELSIUS < > VRB - VARIABLE WIND DIRECTION < > < >>>>>>>>>>>>>>>>>>>>>>>>>>>> KEY <<<<<<<<<<<<<<<<<<<<<<<<<<<

USA.gov is the U.S. government's official web portal to all federal, state and local government web resources and services.